Location: Sungai Buloh
(3.1000°N, 113.0000°E)
Time: 15:49:24
(UTC+00:00)

Cosmos 2154 Rocket - Pass Details

Date: 12 January 2026
Orbit: 965 x 997 km, 82.9° (Epoch: 10 February)

Event Time Altitude Azimuth Distance (km) Brightness Sun altitude
Rises 22:13:50 0° 190° (S) 3,711 7.2 -6.4°
Reaches altitude 10° 22:16:24 10° 193° (SSW) 2,761 6.5 -5.8°
Maximum altitude 22:22:39 63° 273° (W) 1,104 4.1 -4.4°
Drops below altitude 10° 22:28:53 10° 353° (N) 2,746 6.1 -2.9°
Sets 22:31:25 0° 357° (N) 3,690 6.8 -2.3°
